• Back
  •  
  • Position of Reservoir Gates
S.No.
No. of opened gates
Position of opening (In m)
Reporting Date
Reporting Time
Discharge in Cumecs
Discharge in Cusecs
Actual date and time of Gate opening
1
2
3
4
5
6
7
8
1 2 26/08/2012 12:58:49 PM 8.8
2 2 27/08/2012 8:17:00 AM 9.5
3 2 28/08/2012 8:07:01 AM 17.54
4 2 29/08/2012 8:01:24 AM 17.3
5 2 30/08/2012 8:05:20 AM 17.33
6 0 19/09/2012 11:12:29 AM 0
7 0 20/09/2012 7:28:58 AM 0
8 0 21/09/2012 7:56:19 AM 0
9 0 22/09/2012 8:45:55 AM 0
10 0 23/09/2012 8:29:39 AM 0
11 0 17/09/2012 8:55:30 AM 0
12 2 12/09/2012 8:37:44 AM 9.22
13 0 31/08/2012 8:47:33 AM 0
14 0 01/09/2012 9:19:12 AM 0
15 0 02/09/2012 8:42:14 AM 0
16 2 03/09/2012 8:16:25 AM 17.8
17 2 04/09/2012 9:47:43 AM 17.56
18 2 04/09/2012 9:47:43 AM 17.56
19 0 05/09/2012 8:32:06 AM 0
20 4 13/09/2012 8:41:43 AM 26.73
21 2 14/09/2012 8:14:35 AM 8.8
22 0 15/09/2012 8:04:05 AM 0
23 0 16/09/2012 8:30:46 AM 0
24 2 06/09/2012 10:10:39 AM 17.82
25 2 07/09/2012 9:46:08 AM 16
26 2 07/09/2012 9:46:08 AM 16
27 0 25/09/2012 8:05:15 AM 0
28 0 26/09/2012 8:29:33 AM 0
29 0 08/09/2012 9:53:59 AM 0
30 0 09/09/2012 9:42:35 AM 0
31 0 10/09/2012 8:18:31 AM 0
32 0 11/09/2012 8:08:56 AM 0
33 2 26/07/2013 7:27:09 AM 36.47
34 2 31/07/2013 5:08:24 PM 27.97
35 2 05/08/2013 7:29:24 AM 15.47
36 2 06/08/2013 8:42:46 AM 15.47
37 2 06/08/2013 8:42:46 AM 15.47
38 4 07/08/2013 8:43:53 AM 34.12
39 6 09/08/2013 9:42:46 AM 49.62
40 6 10/08/2013 8:12:46 AM 48.84
41 6 11/08/2013 8:10:00 AM 46.41
42 6 12/08/2013 9:35:29 AM 41.94
43 6 18/08/2013 9:12:54 AM 147.42
44 6 21/08/2013 10:58:10 AM 68.04
45 2 30/08/2013 8:14:16 AM 24.96
46 2 30/08/2013 8:20:16 AM 24.96
47 2 04/09/2013 8:25:17 AM 17.56
Powered by © Water Resources Department (MP). All Rights Reserved.